UAE4PV LIMC-KJFK

Flight info

Callsign UAE4PV
Flight time N/A
Altitude 36000
Route AOSTA DCT ORSUD DCT MOLUS DCT UNKIR DCT DJL DCT OKRIX DCT AMODO DCT COHPA UM729 RESMI UN491 LGL UN502 SENLO/N0472F380 UN502 JSY DCT LIZAD DCT LESLU DCT LODLA DCT NEBIN/M083F390 NATB BUDAR/N0474F400 DCT ALLEX DCT PLYMM PARCH4
Aircraft A388/J-SADE2E3FGHIJ3J4J5M1RWXY/LB1D1

Departure

Time N/A
Airport Milan Malpensa International Airport (LIMC)

Arrival

Time 2026-04-30 21:31
Airport John F. Kennedy International Airport (KJFK)
Time Latitude Longitude Altitude Speed Heading
2026-04-30 18:17 51.19061 -44.18317 38444 ft 501 kts 260°
2026-04-30 18:18 51.18553 -44.23808 38449 ft 501 kts 260°
2026-04-30 18:18 51.17528 -44.34790 38445 ft 501 kts 260°
2026-04-30 18:19 51.16493 -44.45761 38446 ft 501 kts 260°
2026-04-30 18:19 51.15447 -44.56737 38448 ft 501 kts 260°
2026-04-30 18:20 51.14390 -44.67714 38469 ft 501 kts 260°
2026-04-30 18:20 51.13324 -44.78668 38459 ft 501 kts 260°
2026-04-30 18:21 51.12249 -44.89620 38457 ft 500 kts 259°
2026-04-30 18:21 51.11164 -45.00551 38455 ft 500 kts 259°
2026-04-30 18:22 51.10069 -45.11482 38450 ft 500 kts 259°
2026-04-30 18:22 51.08407 -45.27866 38450 ft 500 kts 259°
2026-04-30 18:23 51.07286 -45.38784 38449 ft 501 kts 259°
2026-04-30 18:23 51.06155 -45.49704 38473 ft 500 kts 259°
2026-04-30 18:24 51.04443 -45.66030 38464 ft 499 kts 259°
2026-04-30 18:25 51.03290 -45.76900 38457 ft 498 kts 259°
2026-04-30 18:25 51.01545 -45.93161 38447 ft 498 kts 259°
2026-04-30 18:26 50.99777 -46.09416 38445 ft 498 kts 258°
2026-04-30 18:27 50.97986 -46.25658 38449 ft 498 kts 258°
2026-04-30 18:28 50.96174 -46.41880 38465 ft 497 kts 258°
2026-04-30 18:28 50.94352 -46.57972 38457 ft 496 kts 258°
2026-04-30 18:29 50.91883 -46.79459 38449 ft 495 kts 258°
2026-04-30 18:30 50.89369 -47.00972 38447 ft 495 kts 258°
2026-04-30 18:31 50.87474 -47.16958 38483 ft 494 kts 257°
2026-04-30 18:32 50.85553 -47.32959 38464 ft 492 kts 257°
2026-04-30 18:33 50.83617 -47.48891 38452 ft 491 kts 257°
2026-04-30 18:33 50.81662 -47.64791 38444 ft 490 kts 257°
2026-04-30 18:34 50.79689 -47.80646 38436 ft 490 kts 257°
2026-04-30 18:35 50.78361 -47.91208 38445 ft 490 kts 257°
2026-04-30 18:35 50.77027 -48.01747 38472 ft 489 kts 257°
2026-04-30 18:36 50.75013 -48.17499 38460 ft 487 kts 256°
2026-04-30 18:37 50.72983 -48.33200 38447 ft 486 kts 256°
2026-04-30 18:37 50.71620 -48.43642 38442 ft 485 kts 256°
2026-04-30 18:38 50.70250 -48.54062 38442 ft 485 kts 256°
2026-04-30 18:38 50.68872 -48.64470 38435 ft 485 kts 256°
2026-04-30 18:39 50.67483 -48.74876 38433 ft 485 kts 256°
2026-04-30 18:39 50.66084 -48.85288 38433 ft 485 kts 256°
2026-04-30 18:40 50.64675 -48.95693 38439 ft 486 kts 256°
2026-04-30 18:40 50.63256 -49.06102 38441 ft 486 kts 256°
2026-04-30 18:41 50.61827 -49.16514 38440 ft 487 kts 256°
2026-04-30 18:41 50.60388 -49.26921 38437 ft 487 kts 256°
2026-04-30 18:42 50.58938 -49.37331 38443 ft 487 kts 256°
2026-04-30 18:42 50.56747 -49.52932 38439 ft 487 kts 255°
2026-04-30 18:45 50.47763 -50.09279 38427 ft 479 kts 246°
2026-04-30 18:46 50.45395 -50.19069 38417 ft 479 kts 247°
2026-04-30 18:46 50.43050 -50.28856 38410 ft 479 kts 247°
2026-04-30 18:47 50.40685 -50.38627 38414 ft 479 kts 247°
2026-04-30 18:47 50.38308 -50.48385 38413 ft 480 kts 247°
2026-04-30 18:48 50.35923 -50.58128 38443 ft 479 kts 246°
2026-04-30 18:48 50.33549 -50.67786 38421 ft 478 kts 247°
2026-04-30 18:49 50.31153 -50.77488 38415 ft 478 kts 246°
2026-04-30 18:49 50.28750 -50.87179 38420 ft 477 kts 246°
2026-04-30 18:50 50.26342 -50.96847 38409 ft 477 kts 246°
2026-04-30 18:50 50.23927 -51.06502 38410 ft 478 kts 246°
2026-04-30 18:51 50.21499 -51.16165 38406 ft 478 kts 246°
2026-04-30 18:51 50.19062 -51.25821 38407 ft 478 kts 246°
2026-04-30 18:52 50.16618 -51.35468 38406 ft 478 kts 246°
2026-04-30 18:52 50.14164 -51.45108 38403 ft 479 kts 246°
2026-04-30 18:53 50.11701 -51.54748 38452 ft 479 kts 246°
2026-04-30 18:53 50.10464 -51.59570 38897 ft 479 kts 246°
2026-04-30 18:53 50.09229 -51.64375 39346 ft 477 kts 246°
2026-04-30 18:53 50.07992 -51.69183 39687 ft 478 kts 246°
2026-04-30 18:54 50.06754 -51.73980 40000 ft 478 kts 246°
2026-04-30 18:54 50.05512 -51.78784 40306 ft 480 kts 246°
2026-04-30 18:54 50.04258 -51.83621 40395 ft 485 kts 246°
2026-04-30 18:55 50.01770 -51.93197 40397 ft 475 kts 246°
2026-04-30 18:55 49.97955 -52.07474 40390 ft 477 kts 245°
2026-04-30 18:56 49.94430 -52.20040 40387 ft 477 kts 245°
2026-04-30 18:57 49.90506 -52.34235 40387 ft 477 kts 245°
2026-04-30 18:57 49.87888 -52.43688 40382 ft 477 kts 245°
2026-04-30 18:58 49.83947 -52.57842 40392 ft 476 kts 245°
2026-04-30 18:59 49.79997 -52.71941 40368 ft 475 kts 245°
2026-04-30 19:00 49.74715 -52.90660 40368 ft 474 kts 245°
2026-04-30 19:01 49.69415 -53.09247 40360 ft 474 kts 245°
2026-04-30 19:02 49.65402 -53.23216 40350 ft 475 kts 244°
2026-04-30 19:03 49.60028 -53.41796 40352 ft 474 kts 245°
2026-04-30 19:04 49.54628 -53.60326 40344 ft 474 kts 245°
2026-04-30 19:05 49.49199 -53.78811 40339 ft 474 kts 245°
2026-04-30 19:06 49.43735 -53.97274 40327 ft 474 kts 244°
2026-04-30 19:06 49.39614 -54.11106 40309 ft 475 kts 245°
2026-04-30 19:07 49.35472 -54.24932 40310 ft 476 kts 245°
2026-04-30 19:08 49.29913 -54.43363 40298 ft 477 kts 245°
2026-04-30 19:09 49.25727 -54.57157 40319 ft 475 kts 244°
2026-04-30 19:09 49.22930 -54.66326 40308 ft 475 kts 244°
2026-04-30 19:10 49.17332 -54.84575 40289 ft 473 kts 244°
2026-04-30 19:11 49.13131 -54.98185 40296 ft 471 kts 244°
2026-04-30 19:12 49.10344 -55.07175 40284 ft 471 kts 244°
2026-04-30 19:12 49.07517 -55.16257 40281 ft 471 kts 244°
2026-04-30 19:13 49.01898 -55.34216 40285 ft 471 kts 243°
2026-04-30 19:14 48.99067 -55.43212 40282 ft 471 kts 244°
2026-04-30 19:14 48.96208 -55.52265 40267 ft 472 kts 243°
2026-04-30 19:15 48.93379 -55.61192 40280 ft 472 kts 243°
2026-04-30 19:15 48.89095 -55.74651 40274 ft 471 kts 243°
2026-04-30 19:16 48.86231 -55.83609 40271 ft 471 kts 243°
2026-04-30 19:17 48.81922 -55.97024 40272 ft 471 kts 243°
2026-04-30 19:17 48.77583 -56.10464 40256 ft 471 kts 243°
2026-04-30 19:18 48.73249 -56.23816 40249 ft 470 kts 242°
2026-04-30 19:19 48.70356 -56.32689 40243 ft 470 kts 242°
2026-04-30 19:19 48.66002 -56.45983 40258 ft 469 kts 242°
2026-04-30 19:20 48.63101 -56.54804 40253 ft 468 kts 242°
2026-04-30 19:21 48.58744 -56.67995 40250 ft 467 kts 242°
2026-04-30 19:22 48.52920 -56.85520 40242 ft 467 kts 242°
2026-04-30 19:23 48.44133 -57.11736 40257 ft 467 kts 241°
2026-04-30 19:24 48.39712 -57.24824 40270 ft 468 kts 241°
2026-04-30 19:25 48.32310 -57.46594 40266 ft 467 kts 241°
2026-04-30 19:26 48.26371 -57.63926 40262 ft 467 kts 240°
2026-04-30 19:27 48.21899 -57.76902 40249 ft 466 kts 240°
2026-04-30 19:28 48.17419 -57.89835 40249 ft 466 kts 240°
2026-04-30 19:29 48.11424 -58.07043 40244 ft 466 kts 240°
2026-04-30 19:30 48.05394 -58.24235 40255 ft 467 kts 240°
2026-04-30 19:31 47.99337 -58.41392 40241 ft 467 kts 240°
2026-04-30 19:31 47.94791 -58.54196 40252 ft 468 kts 240°
2026-04-30 19:32 47.91717 -58.62820 40253 ft 468 kts 240°
2026-04-30 19:32 47.88677 -58.71319 40257 ft 468 kts 240°
2026-04-30 19:33 47.85607 -58.79875 40255 ft 468 kts 240°
2026-04-30 19:33 47.82529 -58.88423 40250 ft 469 kts 240°
2026-04-30 19:34 47.79444 -58.96966 40247 ft 469 kts 239°
2026-04-30 19:35 47.74804 -59.09761 40241 ft 469 kts 239°
2026-04-30 19:35 47.71705 -59.18272 40249 ft 468 kts 239°
2026-04-30 19:36 47.68602 -59.26765 40240 ft 468 kts 239°
2026-04-30 19:36 47.63949 -59.39456 40233 ft 466 kts 239°
2026-04-30 19:37 47.60842 -59.47892 40226 ft 466 kts 239°
2026-04-30 19:37 47.57734 -59.56307 40196 ft 466 kts 239°
2026-04-30 19:38 47.55142 -59.63302 40197 ft 467 kts 239°
2026-04-30 19:38 47.51502 -59.73097 40200 ft 468 kts 239°
2026-04-30 19:39 47.48871 -59.80155 40211 ft 468 kts 239°
2026-04-30 19:39 47.45205 -59.89958 40216 ft 469 kts 239°
2026-04-30 19:40 47.42552 -59.97029 40198 ft 470 kts 239°
2026-04-30 19:40 47.39377 -60.05470 40210 ft 471 kts 239°
2026-04-30 19:41 47.36192 -60.13907 40199 ft 471 kts 239°
2026-04-30 19:41 47.32998 -60.22344 40204 ft 471 kts 239°
2026-04-30 19:42 47.29800 -60.30761 40198 ft 470 kts 239°
2026-04-30 19:42 47.26600 -60.39160 40194 ft 470 kts 239°
2026-04-30 19:43 47.23400 -60.47534 40187 ft 469 kts 239°
2026-04-30 19:44 47.18594 -60.60058 40174 ft 469 kts 239°
2026-04-30 19:44 47.15385 -60.68391 40163 ft 468 kts 239°
2026-04-30 19:45 47.12169 -60.76715 40164 ft 468 kts 239°
2026-04-30 19:45 47.10559 -60.80871 40159 ft 468 kts 239°
2026-04-30 19:46 47.02400 -61.01840 40137 ft 469 kts 239°
2026-04-30 19:47 46.99158 -61.10129 40128 ft 469 kts 239°
2026-04-30 19:47 46.95910 -61.18406 40132 ft 469 kts 239°
2026-04-30 19:48 46.92655 -61.26677 40120 ft 469 kts 239°
2026-04-30 19:48 46.89392 -61.34942 40113 ft 469 kts 239°
2026-04-30 19:49 46.86147 -61.43137 40116 ft 469 kts 239°
2026-04-30 19:49 46.81239 -61.55486 40104 ft 469 kts 239°
2026-04-30 19:50 46.77960 -61.63705 40104 ft 469 kts 239°
2026-04-30 19:50 46.74677 -61.71907 40105 ft 468 kts 239°
2026-04-30 19:51 46.71395 -61.80086 40112 ft 467 kts 239°
2026-04-30 19:51 46.68110 -61.88246 40107 ft 467 kts 239°
2026-04-30 19:52 46.64823 -61.96387 40107 ft 466 kts 239°
2026-04-30 19:52 46.61535 -62.04504 40112 ft 465 kts 239°
2026-04-30 19:53 46.58246 -62.12604 40108 ft 465 kts 239°
2026-04-30 19:53 46.54950 -62.20694 40107 ft 465 kts 238°
2026-04-30 19:54 46.51649 -62.28773 40101 ft 465 kts 238°
2026-04-30 19:54 46.48346 -62.36834 40108 ft 464 kts 238°
2026-04-30 19:55 46.45040 -62.44878 40104 ft 464 kts 238°
2026-04-30 19:55 46.41731 -62.52906 40103 ft 464 kts 238°
2026-04-30 19:56 46.38416 -62.60925 40102 ft 464 kts 238°
2026-04-30 19:56 46.35101 -62.68921 40099 ft 463 kts 238°
2026-04-30 19:57 46.31779 -62.76912 40084 ft 463 kts 238°
2026-04-30 19:57 46.28453 -62.84888 40060 ft 463 kts 238°
2026-04-30 19:58 46.25124 -62.92850 40050 ft 463 kts 238°
2026-04-30 19:58 46.21787 -63.00807 40034 ft 463 kts 238°
2026-04-30 19:59 46.18443 -63.08757 40037 ft 464 kts 238°
2026-04-30 20:00 46.13409 -63.20682 40055 ft 464 kts 238°
2026-04-30 20:00 46.10038 -63.28639 40038 ft 465 kts 238°
2026-04-30 20:01 46.04966 -63.40572 40035 ft 466 kts 238°
2026-04-30 20:01 46.01578 -63.48513 40034 ft 466 kts 238°
2026-04-30 20:02 45.96507 -63.60356 40028 ft 466 kts 238°
2026-04-30 20:03 45.91410 -63.72210 40029 ft 464 kts 238°
2026-04-30 20:03 45.88013 -63.80083 40024 ft 463 kts 238°
2026-04-30 20:04 45.84623 -63.87918 40018 ft 462 kts 238°
2026-04-30 20:05 45.79530 -63.99645 40004 ft 461 kts 238°
2026-04-30 20:05 45.74437 -64.11326 39987 ft 461 kts 238°
2026-04-30 20:06 45.71040 -64.19091 39979 ft 460 kts 238°
2026-04-30 20:06 45.67635 -64.26849 39979 ft 460 kts 237°
2026-04-30 20:07 45.64231 -64.34587 39992 ft 459 kts 237°
2026-04-30 20:08 45.59147 -64.46102 39989 ft 458 kts 237°
2026-04-30 20:08 45.55741 -64.53791 39987 ft 458 kts 237°
2026-04-30 20:09 45.52334 -64.61459 39994 ft 457 kts 237°
2026-04-30 20:09 45.47223 -64.72928 40005 ft 457 kts 237°
2026-04-30 20:10 45.42106 -64.84360 39986 ft 456 kts 237°
2026-04-30 20:11 45.36990 -64.95747 39976 ft 455 kts 237°
2026-04-30 20:11 45.33579 -65.03314 39972 ft 454 kts 237°
2026-04-30 20:12 45.28455 -65.14640 39966 ft 454 kts 236°
2026-04-30 20:13 45.25035 -65.22176 39962 ft 454 kts 236°
2026-04-30 20:13 45.21611 -65.29701 39952 ft 454 kts 236°
2026-04-30 20:14 45.18202 -65.37172 39966 ft 454 kts 236°
2026-04-30 20:14 45.14765 -65.44686 39958 ft 454 kts 236°
2026-04-30 20:15 45.11322 -65.52192 39949 ft 455 kts 236°
2026-04-30 20:15 45.07868 -65.59702 39951 ft 455 kts 236°
2026-04-30 20:16 45.04415 -65.67193 39944 ft 455 kts 236°
2026-04-30 20:16 45.00953 -65.74681 39940 ft 455 kts 236°
2026-04-30 20:17 44.97486 -65.82160 39924 ft 455 kts 236°
2026-04-30 20:17 44.94605 -65.88361 39937 ft 454 kts 236°
2026-04-30 20:18 44.90548 -65.97071 39929 ft 454 kts 236°
2026-04-30 20:18 44.87077 -66.04501 39919 ft 453 kts 236°
2026-04-30 20:19 44.83627 -66.11866 39915 ft 453 kts 236°
2026-04-30 20:19 44.80720 -66.18058 39907 ft 452 kts 236°
2026-04-30 20:20 44.77252 -66.25429 39907 ft 451 kts 236°
2026-04-30 20:20 44.73779 -66.32791 39891 ft 451 kts 236°
2026-04-30 20:21 44.70306 -66.40135 39889 ft 452 kts 236°
2026-04-30 20:21 44.66811 -66.47518 39901 ft 455 kts 236°
2026-04-30 20:22 44.63303 -66.54910 39893 ft 454 kts 236°
2026-04-30 20:22 44.59797 -66.62281 39877 ft 453 kts 236°
2026-04-30 20:23 44.56299 -66.69614 39869 ft 452 kts 236°
2026-04-30 20:23 44.52797 -66.76938 39860 ft 452 kts 236°
2026-04-30 20:24 44.49297 -66.84241 39861 ft 451 kts 236°
2026-04-30 20:24 44.45783 -66.91547 39857 ft 453 kts 234°
2026-04-30 20:25 44.40041 -67.01977 39866 ft 454 kts 231°
2026-04-30 20:26 44.33820 -67.11951 39849 ft 453 kts 227°
2026-04-30 20:26 44.27461 -67.21696 39832 ft 452 kts 227°
2026-04-30 20:27 44.18981 -67.34598 39822 ft 451 kts 227°
2026-04-30 20:28 44.10500 -67.47429 39810 ft 450 kts 227°
2026-04-30 20:30 43.99893 -67.63394 39805 ft 450 kts 227°
2026-04-30 20:31 43.87069 -67.82577 39830 ft 453 kts 227°
2026-04-30 20:32 43.76354 -67.98507 39821 ft 451 kts 227°
2026-04-30 20:33 43.69945 -68.07992 39806 ft 449 kts 227°
2026-04-30 20:34 43.63548 -68.17428 39798 ft 448 kts 227°
2026-04-30 20:35 43.57159 -68.26821 39798 ft 447 kts 227°
2026-04-30 20:35 43.50762 -68.36196 39797 ft 448 kts 227°
2026-04-30 20:36 43.46491 -68.42436 39801 ft 448 kts 227°
2026-04-30 20:37 43.40075 -68.51786 39798 ft 448 kts 227°
2026-04-30 20:37 43.35796 -68.58006 39798 ft 448 kts 227°
2026-04-30 20:38 43.31508 -68.64224 39788 ft 448 kts 227°
2026-04-30 20:38 43.27218 -68.70431 39790 ft 448 kts 227°
2026-04-30 20:39 43.20796 -68.79698 39790 ft 449 kts 227°
2026-04-30 20:40 43.14342 -68.88981 39789 ft 448 kts 227°
2026-04-30 20:40 43.10009 -68.95196 39784 ft 448 kts 227°
2026-04-30 20:41 43.03575 -69.04399 39790 ft 448 kts 227°
2026-04-30 20:41 42.99236 -69.10589 39795 ft 448 kts 227°
2026-04-30 20:42 42.94923 -69.16729 39794 ft 448 kts 227°
2026-04-30 20:43 42.88478 -69.25879 39789 ft 448 kts 227°
2026-04-30 20:43 42.84155 -69.31999 39789 ft 448 kts 226°
2026-04-30 20:44 42.77665 -69.41164 39788 ft 448 kts 226°
2026-04-30 20:45 42.69001 -69.53352 39819 ft 448 kts 226°
2026-04-30 20:45 42.64660 -69.59440 39798 ft 448 kts 226°
2026-04-30 20:46 42.55972 -69.71582 39805 ft 448 kts 226°
2026-04-30 20:47 42.49457 -69.80656 39802 ft 447 kts 226°
2026-04-30 20:48 42.42937 -69.89706 39799 ft 448 kts 226°
2026-04-30 20:48 42.38590 -69.95724 39810 ft 447 kts 226°
2026-04-30 20:49 42.34244 -70.01728 39806 ft 447 kts 226°
2026-04-30 20:50 42.27720 -70.10717 39805 ft 446 kts 226°
2026-04-30 20:50 42.23373 -70.16693 39810 ft 446 kts 227°
2026-04-30 20:51 42.19030 -70.22648 39804 ft 446 kts 226°
2026-04-30 20:51 42.12508 -70.31571 39800 ft 445 kts 226°
2026-04-30 20:52 42.08200 -70.37553 39786 ft 444 kts 229°
2026-04-30 20:53 42.02949 -70.47690 39788 ft 443 kts 242°
2026-04-30 20:53 42.00393 -70.55230 39800 ft 444 kts 246°
2026-04-30 20:54 41.96815 -70.66710 39755 ft 444 kts 246°
2026-04-30 20:55 41.93197 -70.78157 39777 ft 443 kts 246°
2026-04-30 20:55 41.90927 -70.85311 39780 ft 443 kts 246°
2026-04-30 20:56 41.87378 -70.96460 39686 ft 442 kts 246°
2026-04-30 20:56 41.84983 -71.03963 39228 ft 436 kts 246°
2026-04-30 20:57 41.83789 -71.07691 38987 ft 435 kts 246°
2026-04-30 20:57 41.82611 -71.11367 38720 ft 433 kts 245°
2026-04-30 20:57 41.81423 -71.15072 38060 ft 434 kts 245°
2026-04-30 20:58 41.79007 -71.22580 36399 ft 435 kts 245°
2026-04-30 20:58 41.77813 -71.26285 35611 ft 433 kts 246°
2026-04-30 20:59 41.72865 -71.40687 32897 ft 414 kts 238°
2026-04-30 20:59 41.71173 -71.43771 32365 ft 408 kts 231°
2026-04-30 21:00 41.67100 -71.48893 31336 ft 397 kts 222°
2026-04-30 21:01 41.58800 -71.58153 29280 ft 376 kts 223°
2026-04-30 21:01 41.56810 -71.60372 28805 ft 369 kts 223°
2026-04-30 21:01 41.52922 -71.64696 27837 ft 358 kts 223°
2026-04-30 21:02 41.51026 -71.66801 27400 ft 352 kts 223°
2026-04-30 21:02 41.49151 -71.68882 26934 ft 349 kts 223°
2026-04-30 21:02 41.47290 -71.70947 26489 ft 348 kts 223°
2026-04-30 21:02 41.45432 -71.73008 26040 ft 347 kts 223°
2026-04-30 21:03 41.43582 -71.75056 25552 ft 345 kts 222°
2026-04-30 21:03 41.41740 -71.77094 25023 ft 345 kts 222°
2026-04-30 21:03 41.39862 -71.79174 24498 ft 360 kts 222°
2026-04-30 21:03 41.37906 -71.81336 24237 ft 368 kts 221°
2026-04-30 21:04 41.36595 -71.82782 24083 ft 368 kts 221°
2026-04-30 21:04 41.34627 -71.84951 23846 ft 367 kts 221°
2026-04-30 21:04 41.30698 -71.89275 23802 ft 367 kts 221°
2026-04-30 21:05 41.28098 -71.92136 23815 ft 364 kts 221°
2026-04-30 21:05 41.26785 -71.93580 23627 ft 362 kts 221°
2026-04-30 21:05 41.24198 -71.96422 22730 ft 363 kts 221°
2026-04-30 21:05 41.22893 -71.97853 22462 ft 357 kts 221°
2026-04-30 21:06 41.20999 -71.99929 22263 ft 353 kts 221°
2026-04-30 21:06 41.19100 -72.02011 21917 ft 353 kts 221°
2026-04-30 21:06 41.17207 -72.04084 21539 ft 353 kts 221°
2026-04-30 21:06 41.15318 -72.06151 21167 ft 351 kts 221°
2026-04-30 21:07 41.13438 -72.08207 20792 ft 349 kts 221°
2026-04-30 21:07 41.11619 -72.10314 20425 ft 346 kts 227°
2026-04-30 21:07 41.10144 -72.12763 20054 ft 344 kts 237°
2026-04-30 21:07 41.09033 -72.15614 19686 ft 344 kts 247°
2026-04-30 21:08 41.08289 -72.18622 19318 ft 343 kts 251°
2026-04-30 21:08 41.07574 -72.21585 18960 ft 341 kts 250°
2026-04-30 21:08 41.06834 -72.24565 18596 ft 340 kts 250°
2026-04-30 21:08 41.06093 -72.27530 18241 ft 337 kts 250°
2026-04-30 21:09 41.05364 -72.30453 17854 ft 333 kts 250°
2026-04-30 21:09 41.04638 -72.33364 17538 ft 332 kts 250°
2026-04-30 21:09 41.03914 -72.36264 17292 ft 332 kts 250°
2026-04-30 21:09 41.03192 -72.39160 16963 ft 330 kts 250°
2026-04-30 21:10 41.02473 -72.42042 16607 ft 329 kts 250°
2026-04-30 21:10 41.01756 -72.44911 16259 ft 327 kts 250°
2026-04-30 21:10 41.01044 -72.47758 15911 ft 325 kts 250°
2026-04-30 21:10 41.00335 -72.50590 15569 ft 323 kts 250°
2026-04-30 21:11 40.99628 -72.53409 15257 ft 321 kts 250°
2026-04-30 21:11 40.98938 -72.56161 15147 ft 308 kts 250°
2026-04-30 21:11 40.98280 -72.58786 15027 ft 294 kts 250°
2026-04-30 21:11 40.97649 -72.61299 14934 ft 281 kts 250°
2026-04-30 21:12 40.97033 -72.63743 14545 ft 282 kts 250°
2026-04-30 21:12 40.96381 -72.66310 14308 ft 309 kts 250°
2026-04-30 21:12 40.95683 -72.69060 14150 ft 319 kts 250°
2026-04-30 21:12 40.94984 -72.71829 14106 ft 313 kts 250°
2026-04-30 21:13 40.94309 -72.74511 14022 ft 302 kts 250°
2026-04-30 21:13 40.93664 -72.77064 13902 ft 289 kts 249°
2026-04-30 21:13 40.92784 -72.79395 13777 ft 276 kts 236°
2026-04-30 21:13 40.91509 -72.81290 13265 ft 278 kts 221°
2026-04-30 21:14 40.89936 -72.82789 12762 ft 279 kts 217°
2026-04-30 21:14 40.88359 -72.84270 12383 ft 276 kts 218°
2026-04-30 21:14 40.86815 -72.85750 12060 ft 272 kts 219°
2026-04-30 21:14 40.85291 -72.87217 11869 ft 270 kts 219°
2026-04-30 21:15 40.83793 -72.88656 11822 ft 262 kts 219°
2026-04-30 21:15 40.82354 -72.90036 11730 ft 250 kts 219°
2026-04-30 21:15 40.80974 -72.91357 11655 ft 240 kts 219°
2026-04-30 21:15 40.79648 -72.92627 11583 ft 231 kts 219°
2026-04-30 21:16 40.78374 -72.93846 11520 ft 222 kts 219°
2026-04-30 21:16 40.77149 -72.95019 11459 ft 214 kts 219°
2026-04-30 21:16 40.75956 -72.96160 11254 ft 212 kts 220°
2026-04-30 21:16 40.74773 -72.97291 11050 ft 209 kts 220°
2026-04-30 21:17 40.73600 -72.98413 10790 ft 208 kts 220°
2026-04-30 21:17 40.72410 -72.99554 10401 ft 215 kts 220°
2026-04-30 21:17 40.71163 -73.00749 10256 ft 229 kts 220°
2026-04-30 21:17 40.69844 -73.02016 10034 ft 238 kts 222°
2026-04-30 21:18 40.68818 -73.03638 9790 ft 234 kts 248°
2026-04-30 21:18 40.68525 -73.05706 9571 ft 231 kts 271°
2026-04-30 21:18 40.68568 -73.07820 9340 ft 230 kts 270°
2026-04-30 21:18 40.68586 -73.09931 9116 ft 230 kts 270°
2026-04-30 21:19 40.68594 -73.12031 8975 ft 227 kts 270°
2026-04-30 21:19 40.68601 -73.14109 8983 ft 228 kts 270°
2026-04-30 21:19 40.68609 -73.16204 8990 ft 228 kts 270°
2026-04-30 21:19 40.68618 -73.18295 8986 ft 229 kts 270°
2026-04-30 21:20 40.68628 -73.20388 8988 ft 229 kts 270°
2026-04-30 21:20 40.68746 -73.22471 8977 ft 229 kts 285°
2026-04-30 21:20 40.69549 -73.24277 8868 ft 233 kts 307°
2026-04-30 21:20 40.70600 -73.25897 8684 ft 231 kts 307°
2026-04-30 21:21 40.71647 -73.27511 8355 ft 231 kts 307°
2026-04-30 21:21 40.72688 -73.29125 8045 ft 231 kts 307°
2026-04-30 21:21 40.74739 -73.32379 7411 ft 231 kts 307°
2026-04-30 21:22 40.75754 -73.34014 7135 ft 229 kts 307°
2026-04-30 21:22 40.78757 -73.38909 6251 ft 228 kts 307°
2026-04-30 21:23 40.79748 -73.40536 5972 ft 227 kts 307°
2026-04-30 21:23 40.80728 -73.42160 5721 ft 226 kts 307°
2026-04-30 21:23 40.82668 -73.45399 5208 ft 224 kts 307°
2026-04-30 21:24 40.83592 -73.47008 4943 ft 224 kts 298°
2026-04-30 21:24 40.83963 -73.48974 4703 ft 223 kts 269°
2026-04-30 21:24 40.83857 -73.51019 4448 ft 223 kts 267°
2026-04-30 21:24 40.83742 -73.53060 4248 ft 223 kts 267°
2026-04-30 21:25 40.83630 -73.55102 4033 ft 223 kts 267°
2026-04-30 21:26 40.80895 -73.62318 2983 ft 228 kts 226°
2026-04-30 21:26 40.79652 -73.63586 2977 ft 226 kts 215°
2026-04-30 21:27 40.77003 -73.65685 2914 ft 215 kts 214°
2026-04-30 21:27 40.75730 -73.66685 2616 ft 211 kts 214°
2026-04-30 21:27 40.74500 -73.67655 2356 ft 202 kts 213°
2026-04-30 21:28 40.72323 -73.69363 1846 ft 160 kts 213°
2026-04-30 21:28 40.71410 -73.70082 1634 ft 148 kts 214°
2026-04-30 21:28 40.69727 -73.71405 1241 ft 139 kts 214°
2026-04-30 21:29 40.68900 -73.72048 1053 ft 137 kts 213°
2026-04-30 21:29 40.66543 -73.73918 524 ft 128 kts 211°
2026-04-30 21:30 40.65006 -73.75124 213 ft 128 kts 210°
2026-04-30 21:31 40.63417 -73.76352 29 ft 27 kts 213°
2026-04-30 21:31 40.63254 -73.76593 29 ft 13 kts 240°
2026-04-30 21:32 40.63260 -73.76767 26 ft 11 kts 300°
2026-04-30 21:32 40.63295 -73.76845 31 ft 11 kts 301°
2026-04-30 21:32 40.63336 -73.76933 26 ft 11 kts 301°
2026-04-30 21:32 40.63381 -73.77034 27 ft 14 kts 300°
2026-04-30 21:33 40.63428 -73.77138 29 ft 14 kts 301°
2026-04-30 21:33 40.63534 -73.77372 28 ft 10 kts 300°
2026-04-30 21:33 40.63571 -73.77455 28 ft 12 kts 301°
2026-04-30 21:34 40.63607 -73.77534 27 ft 8 kts 301°
2026-04-30 21:34 40.63672 -73.77656 29 ft 6 kts 311°
2026-04-30 21:34 40.63688 -73.77667 29 ft 6 kts 350°
2026-04-30 21:35 40.63738 -73.77649 28 ft 5 kts 352°
2026-04-30 21:35 40.63771 -73.77677 27 ft 6 kts 318°
2026-04-30 21:35 40.63797 -73.77706 28 ft 9 kts 321°
2026-04-30 21:35 40.63857 -73.77763 28 ft 10 kts 325°
2026-04-30 21:36 40.63908 -73.77802 28 ft 4 kts
2026-04-30 21:36 40.63933 -73.77779 28 ft 7 kts 54°
2026-04-30 21:37 40.63978 -73.77679 28 ft 0 kts 60°
2026-04-30 21:43 40.64012 -73.77601 28 ft 15 kts 57°
2026-04-30 21:43 40.64071 -73.77522 28 ft 15 kts 32°
2026-04-30 21:44 40.64146 -73.77530 28 ft 12 kts 332°
2026-04-30 21:44 40.64228 -73.77588 28 ft 7 kts 332°
2026-04-30 21:44 40.64317 -73.77657 28 ft 15 kts 325°
2026-04-30 21:44 40.64366 -73.77741 28 ft 7 kts 274°
2026-04-30 21:45 40.64360 -73.77800 28 ft 7 kts 256°
2026-04-30 21:45 40.64358 -73.77811 28 ft 0 kts 255°